| time (UTC) | temp F | wind direction | speed MPH | gust MPH | rain 1hr in | rain 24hr in | rain mn in | humidity % | barometer mb |
| 20260510234526 | 64 | 75 | 0.0 | 0.0 | 0.05 | 1.33 | 1.33 | 98 | 1016.1 |
| 20260510234022 | 64 | 69 | 0.0 | 1.0 | 0.05 | 1.33 | 1.33 | 98 | 1015.9 |
| 20260510233519 | 64 | 77 | 0.0 | 1.0 | 0.00 | 1.32 | 1.32 | 98 | 1015.6 |
| 20260510233015 | 64 | 74 | 0.0 | 0.0 | 0.00 | 1.32 | 1.32 | 98 | 1015.8 |
| 20260510232511 | 64 | 85 | 0.0 | 0.0 | 0.07 | 1.32 | 1.32 | 98 | 1015.8 |
| 20260510232007 | 64 | 77 | 0.0 | 0.0 | 0.05 | 1.31 | 1.31 | 98 | 1015.5 |
| 20260510231505 | 64 | 72 | 0.0 | 1.0 | 0.05 | 1.31 | 1.31 | 98 | 1015.6 |
| 20260510231001 | 64 | 50 | 0.0 | 1.0 | 0.00 | 1.30 | 1.30 | 98 | 1015.9 |
| 20260510230456 | 64 | 83 | 0.0 | 0.0 | 0.00 | 1.30 | 1.30 | 98 | 1016.2 |
| 20260510225953 | 64 | 69 | 0.0 | 0.0 | 0.00 | 1.30 | 1.30 | 98 | 1015.7 |
| 20260510225450 | 64 | 79 | 2.0 | 3.0 | 0.00 | 1.30 | 1.30 | 98 | 1015.1 |
| 20260510224945 | 64 | 57 | 0.0 | 1.0 | 0.00 | 1.30 | 1.30 | 98 | 1015.3 |
| 20260510224442 | 64 | 74 | 1.0 | 3.0 | 0.00 | 1.30 | 1.30 | 98 | 1015.3 |
| 20260510223938 | 64 | 79 | 0.0 | 1.0 | 0.00 | 1.30 | 1.30 | 98 | 1015.3 |
| 20260510223436 | 64 | 78 | 0.0 | 1.0 | 0.00 | 1.30 | 1.30 | 98 | 1015.8 |
| 20260510222933 | 64 | 73 | 0.0 | 0.0 | 0.00 | 1.30 | 1.30 | 97 | 1015.4 |
| 20260510222431 | 64 | 72 | 1.0 | 2.0 | 0.24 | 1.30 | 1.30 | 97 | 1015.2 |
| 20260510221927 | 64 | 70 | 0.0 | 1.0 | 0.78 | 1.30 | 1.30 | 97 | 1015.3 |
| 20260510221423 | 64 | 58 | 3.0 | 5.0 | 0.47 | 1.25 | 1.25 | 97 | 1015.2 |
| 20260510220919 | 64 | 182 | 1.0 | 1.0 | 0.00 | 1.17 | 1.17 | 97 | 1016.9 |
| 20260510220415 | 64 | 66 | 0.0 | 2.0 | 0.00 | 1.17 | 1.17 | 97 | 1016.1 |
| 20260510215911 | 65 | 346 | 0.0 | 2.0 | 0.00 | 1.17 | 1.17 | 97 | 1015.8 |
| 20260510215409 | 65 | 77 | 0.0 | 0.0 | 0.00 | 1.17 | 1.17 | 97 | 1015.7 |
| 20260510214907 | 65 | 83 | 1.0 | 5.0 | 0.00 | 1.17 | 1.17 | 97 | 1015.6 |
| 20260510214403 | 65 | 88 | 1.0 | 5.0 | 0.07 | 1.17 | 1.17 | 97 | 1015.7 |
| 20260510213900 | 65 | 77 | 0.0 | 1.0 | 0.07 | 1.17 | 1.17 | 97 | 1015.7 |
| 20260510213357 | 65 | 72 | 0.0 | 2.0 | 0.17 | 1.16 | 1.16 | 97 | 1016.2 |
| 20260510212853 | 64 | 75 | 0.0 | 0.0 | 0.54 | 1.16 | 1.16 | 97 | 1016.2 |
| 20260510212350 | 64 | 61 | 0.0 | 1.0 | 1.04 | 1.13 | 1.13 | 96 | 1016.6 |
| 20260510211847 | 64 | 62 | 0.0 | 3.0 | 0.83 | 1.07 | 1.07 | 96 | 1016.6 |
| 20260510211343 | 65 | 61 | 0.0 | 1.0 | 0.24 | 0.96 | 0.96 | 96 | 1016.7 |
| 20260510210839 | 65 | 81 | 0.0 | 5.0 | 0.12 | 0.93 | 0.93 | 96 | 1017.2 |
| 20260510210334 | 65 | 71 | 0.0 | 1.0 | 0.05 | 0.92 | 0.92 | 96 | 1016.7 |
| 20260510205828 | 65 | 79 | 1.0 | 2.0 | 0.00 | 0.91 | 0.91 | 96 | 1016.4 |
| 20260510205323 | 66 | 81 | 0.0 | 1.0 | 0.00 | 0.91 | 0.91 | 96 | 1016.2 |
| 20260510204820 | 66 | 87 | 0.0 | 3.0 | 0.00 | 0.91 | 0.91 | 96 | 1016.3 |
| 20260510204316 | 66 | 70 | 0.0 | 2.0 | 0.00 | 0.91 | 0.91 | 95 | 1016.1 |
| 20260510203813 | 66 | 67 | 1.0 | 2.0 | 0.00 | 0.91 | 0.91 | 95 | 1016.1 |
| 20260510203311 | 67 | 61 | 1.0 | 2.0 | 0.00 | 0.91 | 0.91 | 95 | 1016.1 |
| 20260510202810 | 68 | 60 | 1.0 | 1.0 | 0.12 | 0.91 | 0.91 | 95 | 1016.1 |
| 20260510202307 | 66 | 81 | 0.0 | 1.0 | 0.19 | 0.91 | 0.91 | 95 | 1015.9 |
| 20260510201803 | 66 | 69 | 0.0 | 1.0 | 0.19 | 0.89 | 0.89 | 95 | 1016.1 |
| 20260510201300 | 66 | 79 | 0.0 | 1.0 | 0.19 | 0.88 | 0.88 | 94 | 1016.2 |
| 20260510200757 | 65 | 73 | 0.0 | 1.0 | 0.66 | 0.86 | 0.86 | 94 | 1016.3 |
| 20260510200255 | 66 | 90 | 1.0 | 1.0 | 1.18 | 0.85 | 0.85 | 93 | 1015.7 |
| 20260510195751 | 66 | 146 | 0.0 | 1.0 | 0.73 | 0.74 | 0.74 | 92 | 1016.1 |
| 20260510195247 | 67 | 71 | 1.0 | 2.0 | 0.31 | 0.65 | 0.65 | 92 | 1016.5 |
| 20260510194746 | 67 | 69 | 0.0 | 1.0 | 0.24 | 0.62 | 0.62 | 91 | 1016.3 |
| 20260510194244 | 68 | 84 | 0.0 | 2.0 | 0.42 | 0.60 | 0.60 | 90 | 1016.0 |
| 20260510193740 | 69 | 66 | 0.0 | 1.0 | 0.42 | 0.56 | 0.56 | 88 | 1016.5 |
| 20260510193234 | 69 | 74 | 0.0 | 0.0 | 0.19 | 0.52 | 0.52 | 86 | 1016.4 |
| 20260510192730 | 69 | 72 | 0.0 | 0.0 | 0.00 | 0.49 | 0.49 | 85 | 1015.8 |
| 20260510192226 | 70 | 76 | 0.0 | 2.0 | 0.00 | 0.49 | 0.49 | 84 | 1016.1 |
| 20260510191722 | 71 | 82 | 0.0 | 2.0 | 0.00 | 0.49 | 0.49 | 84 | 1015.8 |
| 20260510191219 | 71 | 105 | 0.0 | 1.0 | 0.00 | 0.49 | 0.49 | 82 | 1015.8 |
| 20260510190716 | 71 | 82 | 0.0 | 2.0 | 0.00 | 0.49 | 0.49 | 80 | 1015.7 |
| 20260510190213 | 71 | 140 | 3.0 | 5.0 | 0.00 | 0.49 | 0.49 | 81 | 1015.3 |
| 20260510185710 | 71 | 138 | 2.0 | 5.0 | 0.00 | 0.49 | 0.49 | 83 | 1015.4 |
| 20260510185208 | 70 | 95 | 0.0 | 3.0 | 0.00 | 0.49 | 0.49 | 85 | 1015.6 |
| 20260510184704 | 69 | 126 | 2.0 | 5.0 | 0.00 | 0.49 | 0.49 | 89 | 1015.3 |
| 20260510184201 | 68 | 83 | 1.0 | 2.0 | 0.00 | 0.49 | 0.49 | 92 | 1015.2 |
| 20260510183656 | 67 | 63 | 1.0 | 3.0 | 0.00 | 0.49 | 0.49 | 94 | 1015.4 |
| 20260510183151 | 67 | 91 | 0.0 | 1.0 | 0.00 | 0.49 | 0.49 | 95 | 1015.1 |
| 20260510182648 | 66 | 65 | 1.0 | 5.0 | 0.00 | 0.49 | 0.49 | 96 | 1015.1 |
| 20260510182143 | 66 | 31 | 0.0 | 3.0 | 0.00 | 0.49 | 0.49 | 96 | 1014.9 |
| 20260510181641 | 66 | 81 | 0.0 | 3.0 | 0.00 | 0.49 | 0.49 | 96 | 1015.0 |
| 20260510181137 | 67 | 84 | 3.0 | 5.0 | 0.00 | 0.49 | 0.49 | 96 | 1014.9 |
| 20260510180633 | 66 | 63 | 2.0 | 2.0 | 0.00 | 0.49 | 0.49 | 97 | 1014.7 |
| 20260510180131 | 65 | 90 | 1.0 | 2.0 | 0.00 | 0.49 | 0.49 | 96 | 1014.6 |
| 20260510175627 | 64 | 69 | 0.0 | 1.0 | 0.00 | 0.49 | 0.49 | 97 | 1014.6 |
| 20260510175122 | 64 | 79 | 0.0 | 2.0 | 0.00 | 0.49 | 0.49 | 96 | 1014.4 |
| 20260510174620 | 63 | 79 | 0.0 | 1.0 | 0.00 | 0.49 | 0.49 | 96 | 1014.6 |
| 20260510174118 | 63 | 90 | 1.0 | 2.0 | 0.00 | 0.49 | 0.49 | 96 | 1014.8 |
| 20260510173613 | 63 | 86 | 0.0 | 0.0 | 0.00 | 0.49 | 0.49 | 96 | 1014.3 |
| 20260510173110 | 62 | 74 | 0.0 | 0.0 | 0.05 | 0.49 | 0.49 | 96 | 1014.5 |
| 20260510172605 | 62 | 84 | 2.0 | 5.0 | 0.05 | 0.49 | 0.49 | 96 | 1014.6 |
| 20260510172102 | 63 | 5 | 0.0 | 3.0 | 0.07 | 0.48 | 0.48 | 95 | 1015.1 |
| 20260510171558 | 63 | 86 | 0.0 | 2.0 | 0.19 | 0.48 | 0.48 | 95 | 1015.5 |
| 20260510171056 | 63 | 81 | 0.0 | 0.0 | 0.24 | 0.47 | 0.47 | 95 | 1015.8 |
| 20260510170552 | 63 | 63 | 0.0 | 0.0 | 0.35 | 0.45 | 0.45 | 94 | 1016.3 |
| 20260510170049 | 63 | 84 | 1.0 | 6.0 | 0.28 | 0.42 | 0.42 | 94 | 1016.5 |
| 20260510165545 | 63 | 51 | 2.0 | 5.0 | 0.26 | 0.39 | 0.39 | 93 | 1016.4 |
| 20260510165041 | 63 | 57 | 1.0 | 6.0 | 0.31 | 0.36 | 0.36 | 93 | 1016.1 |
| 20260510164538 | 64 | 97 | 1.0 | 7.0 | 0.52 | 0.35 | 0.35 | 91 | 1015.9 |
| 20260510164034 | 64 | 92 | 1.0 | 5.0 | 0.28 | 0.31 | 0.31 | 90 | 1016.0 |
| 20260510163524 | 65 | 53 | 0.0 | 6.0 | 0.00 | 0.26 | 0.26 | 88 | 1015.9 |
| 20260510163021 | 66 | 84 | 1.0 | 5.0 | 0.00 | 0.26 | 0.26 | 85 | 1016.1 |
| 20260510162516 | 68 | 359 | 5.0 | 11.0 | 0.00 | 0.26 | 0.26 | 82 | 1015.7 |
| 20260510162013 | 69 | 75 | 2.0 | 6.0 | 0.00 | 0.26 | 0.26 | 78 | 1015.2 |
| 20260510161509 | 72 | 88 | 1.0 | 5.0 | 0.00 | 0.26 | 0.26 | 74 | 1015.2 |
| 20260510161005 | 76 | 26 | 1.0 | 1.0 | 0.00 | 0.26 | 0.26 | 71 | 1014.6 |
| 20260510160457 | 76 | 83 | 1.0 | 1.0 | 0.00 | 0.26 | 0.26 | 70 | 1013.1 |
| 20260510155954 | 76 | 96 | 2.0 | 2.0 | 0.00 | 0.26 | 0.26 | 69 | 1013.0 |
| 20260510155447 | 77 | 105 | 1.0 | 2.0 | 0.00 | 0.26 | 0.26 | 69 | 1012.5 |
| 20260510154943 | 76 | 100 | 1.0 | 6.0 | 0.00 | 0.26 | 0.26 | 68 | 1012.1 |
| 20260510154439 | 75 | 116 | 1.0 | 3.0 | 0.00 | 0.26 | 0.26 | 70 | 1011.9 |
| 20260510153938 | 75 | 98 | 0.0 | 1.0 | 0.00 | 0.26 | 0.26 | 69 | 1012.2 |
| 20260510153435 | 76 | 155 | 3.0 | 5.0 | 0.00 | 0.26 | 0.26 | 68 | 1012.0 |
| 20260510152931 | 77 | 139 | 5.0 | 7.0 | 0.00 | 0.26 | 0.26 | 67 | 1011.7 |
| 20260510152429 | 76 | 97 | 2.0 | 8.0 | 0.00 | 0.26 | 0.26 | 69 | 1011.8 |
| 20260510151925 | 76 | 78 | 1.0 | 3.0 | 0.00 | 0.26 | 0.26 | 70 | 1011.8 |
| 20260510151422 | 76 | 76 | 0.0 | 2.0 | 0.00 | 0.26 | 0.26 | 72 | 1011.6 |
| 20260510150919 | 75 | 77 | 1.0 | 2.0 | 0.00 | 0.26 | 0.26 | 73 | 1011.6 |
| 20260510150415 | 74 | 97 | 0.0 | 2.0 | 0.00 | 0.26 | 0.26 | 75 | 1011.6 |
| 20260510145911 | 74 | 119 | 2.0 | 3.0 | 0.00 | 0.26 | 0.26 | 76 | 1012.0 |
| 20260510145407 | 73 | 110 | 2.0 | 3.0 | 0.00 | 0.26 | 0.26 | 77 | 1011.9 |
| 20260510144904 | 73 | 79 | 2.0 | 5.0 | 0.00 | 0.26 | 0.26 | 78 | 1012.0 |
| 20260510144401 | 72 | 111 | 1.0 | 3.0 | 0.00 | 0.26 | 0.26 | 80 | 1011.9 |
| 20260510143855 | 71 | 101 | 1.0 | 5.0 | 0.00 | 0.26 | 0.26 | 82 | 1012.0 |
| 20260510143351 | 71 | 112 | 1.0 | 3.0 | 0.00 | 0.26 | 0.26 | 85 | 1011.5 |
| 20260510142848 | 69 | 82 | 0.0 | 2.0 | 0.00 | 0.26 | 0.26 | 88 | 1011.7 |
| 20260510142345 | 69 | 87 | 1.0 | 1.0 | 0.00 | 0.26 | 0.26 | 91 | 1011.7 |
| 20260510141842 | 68 | 126 | 1.0 | 3.0 | 0.00 | 0.26 | 0.26 | 94 | 1011.8 |
| 20260510141339 | 67 | 91 | 1.0 | 2.0 | 0.00 | 0.26 | 0.26 | 95 | 1011.8 |
| 20260510140836 | 66 | 86 | 0.0 | 1.0 | 0.00 | 0.26 | 0.26 | 96 | 1012.1 |
| 20260510140331 | 66 | 102 | 0.0 | 1.0 | 0.00 | 0.26 | 0.26 | 97 | 1012.2 |
| 20260510135825 | 66 | 112 | 1.0 | 5.0 | 0.00 | 0.26 | 0.26 | 97 | 1012.2 |
| 20260510135321 | 66 | 116 | 1.0 | 3.0 | 0.00 | 0.26 | 0.26 | 98 | 1012.2 |
| 20260510134819 | 64 | 125 | 1.0 | 2.0 | 0.00 | 0.26 | 0.26 | 98 | 1012.5 |
| 20260510134316 | 64 | 96 | 0.0 | 1.0 | 0.00 | 0.26 | 0.26 | 98 | 1013.0 |
| 20260510133812 | 64 | 81 | 0.0 | 0.0 | 0.00 | 0.26 | 0.26 | 98 | 1013.3 |
| 20260510133308 | 64 | 79 | 0.0 | 0.0 | 0.00 | 0.26 | 0.26 | 98 | 1013.4 |
| 20260510132803 | 64 | 104 | 0.0 | 0.0 | 0.00 | 0.26 | 0.26 | 98 | 1013.4 |
| 20260510132305 | 64 | 84 | 0.0 | 0.0 | 0.00 | 0.26 | 0.26 | 98 | 1013.3 |
| 20260510131758 | 65 | 83 | 0.0 | 0.0 | 0.00 | 0.26 | 0.26 | 98 | 1013.1 |
| 20260510131256 | 65 | 83 | 0.0 | 0.0 | 0.00 | 0.26 | 0.26 | 98 | 1013.2 |
| 20260510130752 | 65 | 85 | 0.0 | 0.0 | 0.00 | 0.26 | 0.26 | 98 | 1012.8 |
| 20260510130249 | 64 | 87 | 0.0 | 0.0 | 0.00 | 0.26 | 0.26 | 98 | 1012.8 |
| 20260510125746 | 64 | 80 | 0.0 | 0.0 | 0.00 | 0.26 | 0.26 | 98 | 1012.7 |
| 20260510125242 | 64 | 84 | 0.0 | 1.0 | 0.00 | 0.26 | 0.26 | 98 | 1012.8 |
| 20260510124739 | 64 | 88 | 1.0 | 1.0 | 0.00 | 0.26 | 0.26 | 98 | 1012.6 |
| 20260510124237 | 64 | 93 | 0.0 | 2.0 | 0.00 | 0.26 | 0.26 | 98 | 1012.6 |
| 20260510123732 | 64 | 88 | 0.0 | 1.0 | 0.00 | 0.26 | 0.26 | 98 | 1012.8 |
| 20260510123228 | 64 | 81 | 0.0 | 1.0 | 0.00 | 0.26 | 0.26 | 98 | 1012.7 |
| 20260510122724 | 64 | 85 | 0.0 | 1.0 | 0.00 | 0.26 | 0.26 | 98 | 1012.7 |
| 20260510122221 | 64 | 98 | 0.0 | 0.0 | 0.00 | 0.26 | 0.26 | 98 | 1012.7 |
| 20260510121717 | 64 | 73 | 1.0 | 2.0 | 0.00 | 0.26 | 0.26 | 98 | 1012.5 |
| 20260510121215 | 64 | 86 | 0.0 | 1.0 | 0.00 | 0.26 | 0.26 | 98 | 1012.5 |
| 20260510120712 | 64 | 77 | 0.0 | 0.0 | 0.00 | 0.26 | 0.26 | 97 | 1012.5 |
| 20260510120208 | 64 | 76 | 0.0 | 0.0 | 0.00 | 0.26 | 0.26 | 97 | 1012.5 |
| 20260510115704 | 64 | 84 | 0.0 | 0.0 | 0.00 | 0.26 | 0.26 | 97 | 1012.5 |
| 20260510115203 | 64 | 73 | 0.0 | 0.0 | 0.00 | 0.26 | 0.26 | 97 | 1012.3 |
| 20260510114657 | 64 | 74 | 0.0 | 1.0 | 0.00 | 0.26 | 0.26 | 97 | 1012.5 |
| 20260510114154 | 64 | 83 | 0.0 | 0.0 | 0.00 | 0.26 | 0.26 | 97 | 1012.1 |
| 20260510113643 | 64 | 81 | 0.0 | 1.0 | 0.00 | 0.26 | 0.26 | 97 | 1012.4 |
| 20260510113141 | 63 | 77 | 0.0 | 1.0 | 0.00 | 0.26 | 0.26 | 97 | 1012.4 |
| 20260510112637 | 64 | 74 | 0.0 | 0.0 | 0.00 | 0.26 | 0.26 | 97 | 1012.2 |
| 20260510112134 | 64 | 81 | 0.0 | 0.0 | 0.00 | 0.26 | 0.26 | 97 | 1012.0 |
| 20260510111630 | 64 | 69 | 0.0 | 0.0 | 0.00 | 0.26 | 0.26 | 97 | 1012.1 |
| 20260510111126 | 64 | 83 | 0.0 | 0.0 | 0.00 | 0.26 | 0.26 | 97 | 1012.1 |
| 20260510110622 | 64 | 83 | 0.0 | 0.0 | 0.00 | 0.26 | 0.26 | 97 | 1012.0 |
| 20260510110119 | 64 | 78 | 0.0 | 1.0 | 0.00 | 0.26 | 0.26 | 97 | 1011.7 |
| 20260510105615 | 64 | 71 | 0.0 | 0.0 | 0.00 | 0.26 | 0.26 | 97 | 1011.8 |
| 20260510105109 | 64 | 79 | 0.0 | 0.0 | 0.00 | 0.26 | 0.26 | 97 | 1011.8 |
| 20260510104607 | 64 | 87 | 0.0 | 0.0 | 0.00 | 0.26 | 0.26 | 96 | 1012.1 |
| 20260510104103 | 64 | 72 | 0.0 | 0.0 | 0.00 | 0.26 | 0.26 | 96 | 1012.1 |
| 20260510103600 | 64 | 72 | 0.0 | 0.0 | 0.00 | 0.26 | 0.26 | 96 | 1011.7 |
| 20260510103056 | 64 | 66 | 0.0 | 0.0 | 0.00 | 0.26 | 0.26 | 96 | 1011.8 |
| 20260510102551 | 64 | 86 | 1.0 | 3.0 | 0.00 | 0.26 | 0.26 | 96 | 1011.6 |
| 20260510102048 | 64 | 84 | 0.0 | 3.0 | 0.00 | 0.26 | 0.26 | 96 | 1011.2 |
| 20260510101545 | 64 | 71 | 0.0 | 2.0 | 0.00 | 0.26 | 0.26 | 96 | 1011.1 |
| 20260510101044 | 64 | 90 | 0.0 | 2.0 | 0.00 | 0.26 | 0.26 | 96 | 1011.4 |
| 20260510100539 | 64 | 87 | 3.0 | 3.0 | 0.00 | 0.26 | 0.26 | 96 | 1012.0 |
| 20260510100037 | 64 | 88 | 0.0 | 5.0 | 0.00 | 0.26 | 0.26 | 95 | 1011.8 |
| 20260510095533 | 64 | 75 | 0.0 | 1.0 | 0.07 | 0.26 | 0.26 | 95 | 1011.7 |
| 20260510095032 | 64 | 59 | 2.0 | 2.0 | 0.05 | 0.25 | 0.25 | 95 | 1012.2 |
| 20260510094527 | 64 | 84 | 1.0 | 3.0 | 0.19 | 0.25 | 0.25 | 95 | 1011.6 |
| 20260510094023 | 64 | 91 | 1.0 | 3.0 | 0.26 | 0.24 | 0.24 | 94 | 1011.7 |
| 20260510093519 | 65 | 61 | 2.0 | 3.0 | 0.12 | 0.22 | 0.22 | 94 | 1011.9 |
| 20260510093016 | 65 | 83 | 1.0 | 3.0 | 0.24 | 0.20 | 0.20 | 93 | 1012.0 |
| 20260510092513 | 65 | 68 | 0.0 | 9.0 | 0.78 | 0.20 | 0.20 | 92 | 1011.6 |
| 20260510092012 | 65 | 65 | 3.0 | 8.0 | 0.85 | 0.15 | 0.15 | 90 | 1010.7 |
| 20260510091509 | 66 | 161 | 1.0 | 5.0 | 0.40 | 0.07 | 0.07 | 88 | 1011.9 |
| 20260510091005 | 68 | 72 | 2.0 | 6.0 | 0.00 | 0.00 | 0.00 | 85 | 1012.3 |
| 20260510090503 | 68 | 276 | 2.0 | 2.0 | 0.00 | 0.00 | 0.00 | 83 | 1012.7 |
| 20260510085958 | 69 | 87 | 1.0 | 5.0 | 0.00 | 0.00 | 0.00 | 82 | 1012.7 |
| 20260510085453 | 69 | 38 | 2.0 | 7.0 | 0.00 | 0.00 | 0.00 | 81 | 1012.3 |
| 20260510084949 | 69 | 61 | 0.0 | 6.0 | 0.00 | 0.00 | 0.00 | 82 | 1012.2 |
| 20260510084446 | 70 | 73 | 0.0 | 3.0 | 0.00 | 0.00 | 0.00 | 86 | 1012.1 |
| 20260510083943 | 71 | 64 | 0.0 | 3.0 | 0.00 | 0.00 | 0.00 | 88 | 1011.8 |
| 20260510083439 | 71 | 61 | 0.0 | 0.0 | 0.00 | 0.00 | 0.00 | 90 | 1010.9 |
| 20260510082935 | 71 | 69 | 0.0 | 0.0 | 0.00 | 0.00 | 0.00 | 91 | 1011.0 |
| 20260510082433 | 71 | 90 | 1.0 | 2.0 | 0.00 | 0.00 | 0.00 | 91 | 1010.9 |
| 20260510081932 | 73 | 83 | 0.0 | 1.0 | 0.00 | 0.00 | 0.00 | 93 | 1010.5 |
| 20260510081428 | 73 | 80 | 0.0 | 0.0 | 0.00 | 0.00 | 0.00 | 93 | 1010.4 |
| 20260510080924 | 73 | 70 | 0.0 | 5.0 | 0.00 | 0.00 | 0.00 | 93 | 1010.6 |
| 20260510080423 | 73 | 99 | 1.0 | 1.0 | 0.00 | 0.00 | 0.00 | 93 | 1010.6 |
| 20260510075920 | 73 | 52 | 0.0 | 1.0 | 0.00 | 0.00 | 0.00 | 93 | 1010.6 |
| 20260510075418 | 73 | 78 | 0.0 | 1.0 | 0.00 | 0.00 | 0.00 | 92 | 1010.6 |
| 20260510074914 | 73 | 72 | 0.0 | 0.0 | 0.00 | 0.00 | 0.00 | 92 | 1010.3 |
| 20260510074412 | 73 | 70 | 0.0 | 0.0 | 0.00 | 0.00 | 0.00 | 92 | 1010.1 |
| 20260510073908 | 73 | 85 | 0.0 | 2.0 | 0.00 | 0.00 | 0.00 | 92 | 1009.3 |
| 20260510073403 | 73 | 85 | 0.0 | 2.0 | 0.00 | 0.00 | 0.00 | 92 | 1009.2 |
| 20260510072900 | 73 | 79 | 1.0 | 2.0 | 0.00 | 0.00 | 0.00 | 91 | 1009.4 |
| 20260510072357 | 74 | 87 | 0.0 | 2.0 | 0.00 | 0.00 | 0.00 | 91 | 1009.1 |
| 20260510071853 | 74 | 76 | 0.0 | 3.0 | 0.00 | 0.00 | 0.00 | 91 | 1008.7 |
| 20260510071349 | 74 | 100 | 2.0 | 3.0 | 0.00 | 0.00 | 0.00 | 90 | 1008.7 |
| 20260510070848 | 74 | 112 | 3.0 | 5.0 | 0.00 | 0.00 | 0.00 | 89 | 1008.7 |
| 20260510070344 | 75 | 93 | 2.0 | 5.0 | 0.00 | 0.00 | 0.00 | 89 | 1008.4 |
| 20260510065839 | 75 | 96 | 1.0 | 3.0 | 0.00 | 0.00 | 0.00 | 88 | 1008.6 |
| 20260510065336 | 75 | 127 | 3.0 | 3.0 | 0.00 | 0.00 | 0.00 | 88 | 1008.6 |
| 20260510064833 | 75 | 97 | 2.0 | 3.0 | 0.00 | 0.00 | 0.00 | 88 | 1008.9 |
| 20260510064331 | 75 | 92 | 1.0 | 2.0 | 0.00 | 0.00 | 0.00 | 88 | 1009.8 |
| 20260510063826 | 75 | 81 | 0.0 | 5.0 | 0.00 | 0.00 | 0.00 | 88 | 1010.4 |
| 20260510063323 | 75 | 79 | 1.0 | 2.0 | 0.00 | 0.00 | 0.00 | 89 | 1010.6 |
| 20260510062820 | 75 | 70 | 0.0 | 1.0 | 0.00 | 0.00 | 0.00 | 89 | 1011.0 |
| 20260510062315 | 75 | 67 | 0.0 | 2.0 | 0.00 | 0.00 | 0.00 | 89 | 1011.0 |
| 20260510061810 | 75 | 77 | 0.0 | 2.0 | 0.00 | 0.00 | 0.00 | 89 | 1011.0 |
| 20260510061308 | 74 | 93 | 1.0 | 1.0 | 0.00 | 0.00 | 0.00 | 89 | 1010.7 |
| 20260510060804 | 75 | 72 | 0.0 | 1.0 | 0.00 | 0.00 | 0.00 | 89 | 1010.7 |
| 20260510060301 | 75 | 65 | 1.0 | 2.0 | 0.00 | 0.00 | 0.00 | 88 | 1010.7 |
| 20260510055758 | 75 | 69 | 0.0 | 1.0 | 0.00 | 0.00 | 0.00 | 88 | 1010.6 |
| 20260510055256 | 75 | 73 | 0.0 | 1.0 | 0.00 | 0.00 | 0.00 | 88 | 1010.0 |
| 20260510054756 | 75 | 103 | 1.0 | 2.0 | 0.00 | 0.00 | 0.00 | 88 | 1009.2 |
| 20260510054252 | 75 | 79 | 0.0 | 0.0 | 0.00 | 0.00 | 0.00 | 88 | 1008.7 |
| 20260510053751 | 75 | 83 | 0.0 | 0.0 | 0.00 | 0.00 | 0.00 | 87 | 1008.6 |
| 20260510053242 | 75 | 85 | 0.0 | 1.0 | 0.00 | 0.00 | 0.00 | 87 | 1008.1 |
| 20260510052738 | 75 | 88 | 2.0 | 3.0 | 0.00 | 0.00 | 0.00 | 87 | 1008.2 |
| 20260510052235 | 75 | 78 | 0.0 | 2.0 | 0.00 | 0.00 | 0.00 | 87 | 1008.3 |
| 20260510051730 | 75 | 85 | 1.0 | 2.0 | 0.00 | 0.00 | 0.00 | 86 | 1008.0 |
| 20260510051227 | 75 | 97 | 1.0 | 2.0 | 0.00 | 0.00 | 0.00 | 86 | 1007.8 |
| 20260510050724 | 75 | 111 | 3.0 | 3.0 | 0.00 | 0.00 | 0.00 | 85 | 1007.7 |
| 20260510050222 | 75 | 61 | 1.0 | 3.0 | 0.00 | 0.00 | 0.00 | 85 | 1007.7 |
| 20260510045718 | 75 | 93 | 1.0 | 2.0 | 0.00 | 0.00 | 0.00 | 84 | 1007.8 |
| 20260510045215 | 75 | 90 | 0.0 | 1.0 | 0.00 | 0.00 | 0.00 | 83 | 1007.6 |
| 20260510044711 | 75 | 101 | 2.0 | 3.0 | 0.00 | 0.00 | 0.00 | 83 | 1007.6 |
| 20260510044210 | 74 | 81 | 0.0 | 1.0 | 0.00 | 0.00 | 0.00 | 82 | 1007.7 |
| 20260510043704 | 74 | 87 | 1.0 | 1.0 | 0.00 | 0.00 | 0.00 | 81 | 1007.3 |
| 20260510043201 | 74 | 91 | 1.0 | 2.0 | 0.00 | 0.00 | 0.00 | 81 | 1007.4 |
| 20260510042658 | 74 | 73 | 0.0 | 1.0 | 0.00 | 0.00 | 0.00 | 80 | 1007.3 |
| 20260510042154 | 74 | 78 | 1.0 | 2.0 | 0.00 | 0.00 | 0.00 | 80 | 1007.3 |
| 20260510041652 | 74 | 85 | 0.0 | 1.0 | 0.00 | 0.00 | 0.00 | 80 | 1007.5 |
| 20260510041149 | 74 | 91 | 0.0 | 2.0 | 0.00 | 0.00 | 0.00 | 79 | 1007.5 |
| 20260510040646 | 75 | 85 | 0.0 | 0.0 | 0.00 | 0.00 | 0.00 | 79 | 1007.3 |
| 20260510040143 | 75 | 84 | 1.0 | 2.0 | 0.00 | 0.00 | 0.00 | 79 | 1007.4 |
| 20260510035638 | 75 | 85 | 0.0 | 1.0 | 0.00 | 0.00 | 0.00 | 79 | 1007.3 |
| 20260510035133 | 75 | 85 | 0.0 | 2.0 | 0.00 | 0.00 | 0.00 | 79 | 1007.5 |
| 20260510034630 | 75 | 78 | 0.0 | 1.0 | 0.00 | 0.00 | 0.00 | 79 | 1007.7 |
| 20260510034127 | 75 | 68 | 2.0 | 2.0 | 0.00 | 0.00 | 0.00 | 78 | 1007.6 |
| 20260510033624 | 75 | 81 | 1.0 | 1.0 | 0.00 | 0.00 | 0.00 | 78 | 1007.5 |
| 20260510033121 | 75 | 82 | 0.0 | 2.0 | 0.00 | 0.00 | 0.00 | 78 | 1007.5 |
| 20260510032618 | 76 | 84 | 1.0 | 2.0 | 0.00 | 0.00 | 0.00 | 77 | 1007.7 |
| 20260510032113 | 76 | 90 | 0.0 | 0.0 | 0.00 | 0.00 | 0.00 | 76 | 1007.6 |
| 20260510031608 | 76 | 85 | 0.0 | 1.0 | 0.00 | 0.00 | 0.00 | 75 | 1007.6 |
| 20260510031105 | 77 | 87 | 0.0 | 1.0 | 0.00 | 0.00 | 0.00 | 74 | 1007.6 |
| 20260510030600 | 77 | 89 | 1.0 | 1.0 | 0.00 | 0.00 | 0.00 | 74 | 1007.7 |
| 20260510030057 | 77 | 82 | 0.0 | 2.0 | 0.00 | 0.00 | 0.00 | 73 | 1007.4 |
| 20260510025554 | 77 | 87 | 1.0 | 2.0 | 0.00 | 0.00 | 0.00 | 73 | 1007.5 |
| 20260510025052 | 77 | 90 | 1.0 | 2.0 | 0.00 | 0.00 | 0.00 | 73 | 1007.7 |
| 20260510024548 | 77 | 104 | 1.0 | 1.0 | 0.00 | 0.00 | 0.00 | 72 | 1007.4 |
| 20260510024045 | 78 | 82 | 1.0 | 2.0 | 0.00 | 0.00 | 0.00 | 72 | 1007.6 |
| 20260510023541 | 78 | 83 | 0.0 | 2.0 | 0.00 | 0.00 | 0.00 | 71 | 1007.8 |
| 20260510023039 | 78 | 95 | 1.0 | 3.0 | 0.00 | 0.00 | 0.00 | 70 | 1007.6 |
| 20260510022538 | 78 | 82 | 0.0 | 3.0 | 0.00 | 0.00 | 0.00 | 70 | 1007.7 |
| 20260510022032 | 78 | 59 | 3.0 | 3.0 | 0.00 | 0.00 | 0.00 | 70 | 1007.4 |
| 20260510021529 | 78 | 92 | 1.0 | 2.0 | 0.00 | 0.00 | 0.00 | 70 | 1007.5 |
| 20260510021026 | 78 | 87 | 1.0 | 2.0 | 0.00 | 0.00 | 0.00 | 69 | 1007.5 |
| 20260510020521 | 78 | 94 | 1.0 | 3.0 | 0.00 | 0.00 | 0.00 | 69 | 1007.4 |
| 20260510020017 | 79 | 84 | 0.0 | 1.0 | 0.00 | 0.00 | 0.00 | 69 | 1007.1 |
| 20260510015512 | 79 | 83 | 0.0 | 3.0 | 0.00 | 0.00 | 0.00 | 69 | 1007.2 |
| 20260510015008 | 79 | 85 | 0.0 | 3.0 | 0.00 | 0.00 | 0.00 | 68 | 1007.2 |
| 20260510014505 | 79 | 85 | 1.0 | 2.0 | 0.00 | 0.00 | 0.00 | 68 | 1007.1 |
| 20260510014002 | 79 | 95 | 1.0 | 1.0 | 0.00 | 0.00 | 0.00 | 68 | 1007.2 |
| 20260510013456 | 79 | 77 | 1.0 | 2.0 | 0.00 | 0.00 | 0.00 | 67 | 1007.0 |
| 20260510012953 | 80 | 60 | 1.0 | 2.0 | 0.00 | 0.00 | 0.00 | 67 | 1007.1 |
| 20260510012447 | 80 | 84 | 1.0 | 1.0 | 0.00 | 0.00 | 0.00 | 66 | 1007.1 |
| 20260510011943 | 80 | 79 | 0.0 | 1.0 | 0.00 | 0.00 | 0.00 | 66 | 1006.9 |
| 20260510011437 | 80 | 87 | 0.0 | 2.0 | 0.00 | 0.00 | 0.00 | 65 | 1006.7 |
| 20260510010934 | 81 | 79 | 1.0 | 3.0 | 0.00 | 0.00 | 0.00 | 65 | 1006.5 |
| 20260510010432 | 81 | 90 | 0.0 | 3.0 | 0.00 | 0.00 | 0.00 | 65 | 1006.8 |
| 20260510005928 | 81 | 82 | 1.0 | 1.0 | 0.00 | 0.00 | 0.00 | 64 | 1006.6 |
| 20260510005424 | 81 | 86 | 0.0 | 2.0 | 0.00 | 0.00 | 0.00 | 63 | 1006.3 |
| 20260510004921 | 82 | 82 | 0.0 | 2.0 | 0.00 | 0.00 | 0.00 | 63 | 1006.6 |
| 20260510004419 | 82 | 84 | 0.0 | 2.0 | 0.00 | 0.00 | 0.00 | 62 | 1006.5 |
| 20260510003917 | 82 | 91 | 2.0 | 2.0 | 0.00 | 0.00 | 0.00 | 61 | 1006.4 |
| 20260510003414 | 82 | 57 | 1.0 | 1.0 | 0.00 | 0.00 | 0.00 | 60 | 1006.6 |
| 20260510002913 | 83 | 82 | 2.0 | 3.0 | 0.00 | 0.00 | 0.00 | 59 | 1006.5 |
| 20260510002410 | 83 | 93 | 1.0 | 5.0 | 0.00 | 0.00 | 0.00 | 57 | 1006.6 |
| 20260510001906 | 83 | 81 | 3.0 | 5.0 | 0.00 | 0.00 | 0.00 | 56 | 1006.4 |
| 20260510001404 | 83 | 107 | 3.0 | 5.0 | 0.00 | 0.00 | 0.00 | 56 | 1006.5 |
| 20260510000901 | 83 | 91 | 2.0 | 2.0 | 0.00 | 0.00 | 0.00 | 54 | 1006.6 |
| 20260510000357 | 84 | 115 | 2.0 | 2.0 | 0.00 | 0.00 | 0.00 | 54 | 1006.5 |
| 20260509235854 | 84 | 90 | 0.0 | 2.0 | 0.00 | 0.00 | 0.00 | 54 | 1006.7 |
| 20260509235350 | 84 | 79 | 1.0 | 3.0 | 0.00 | 0.00 | 0.00 | 55 | 1006.6 |
| 20260509234847 | 84 | 87 | 0.0 | 0.0 | 0.00 | 0.00 | 0.00 | 57 | 1006.7 |